DW8078 Weather Reports


Display with metric or nautical units.
time (UTC)temp
F
wind
direction
speed
MPH
gust
MPH
rain 1hr
in
rain 24hr
in
rain mn
in
humidity
%
barometer
mb
20181020121502 54 14 0.0 4.0 0.00 0.00 0.00 64 1024.5
20181020120128 54 11 1.0 5.0 0.00 0.00 0.00 66 1024.6
20181020114612 53 360 0.0 4.0 0.00 0.00 0.00 68 1024.7
20181020113126 51 334 0.0 2.0 0.00 0.00 0.00 70 1024.7
20181020111753 51 336 1.0 5.0 0.00 0.00 0.00 74 1024.7
20181020110118 51 326 0.0 0.0 0.00 0.00 0.00 79 1024.9
20181020104610 50 334 2.0 6.0 0.00 0.00 0.00 79 1024.8
20181020103125 50 333 3.0 7.0 0.00 0.00 0.00 80 1025.0
20181020101646 50 343 0.0 3.0 0.00 0.00 0.00 82 1025.0
20181020100050 50 360 0.0 6.0 0.00 0.00 0.00 82 1024.9
20181020094613 50 26 0.0 1.0 0.00 0.00 0.00 83 1024.9
20181020093124 50 337 0.0 0.0 0.00 0.00 0.00 84 1024.9
20181020091556 49 325 0.0 0.0 0.00 0.00 0.00 84 1024.7
20181020090113 49 281 0.0 0.0 0.00 0.00 0.00 87 1024.4
20181020084610 46 282 0.0 3.0 0.00 0.00 0.00 90 1024.9
20181020083122 45 275 0.0 0.0 0.00 0.00 0.00 91 1024.8
20181020081554 44 275 0.0 0.0 0.00 0.00 0.00 91 1025.1
20181020080056 44 266 0.0 0.0 0.00 0.00 0.00 91 1024.9
20181020074633 43 237 0.0 0.0 0.00 0.00 0.00 91 1025.0
20181020073035 42 189 0.0 0.0 0.00 0.00 0.00 91 1024.8
20181020071542 42 188 0.0 0.0 0.00 0.00 0.00 91 1024.8
20181020070020 41 189 0.0 0.0 0.00 0.00 0.00 91 1024.8
20181020064514 41 189 0.0 0.0 0.00 0.00 0.00 91 1024.8
20181020063032 40 188 0.0 0.0 0.00 0.00 0.00 90 1024.7
20181020061511 39 189 0.0 0.0 0.00 0.00 0.00 90 1024.6
20181020060012 40 188 0.0 0.0 0.00 0.00 0.00 90 1024.6
20181020054523 40 188 0.0 0.0 0.00 0.00 0.00 91 1024.3
20181020053006 39 188 0.0 0.0 0.00 0.00 0.00 90 1024.4
20181020051516 38 188 0.0 0.0 0.00 0.00 0.00 90 1024.6
20181020050006 39 188 0.0 0.0 0.00 0.00 0.00 90 1024.2
20181020044521 40 188 0.0 0.0 0.00 0.00 0.00 90 1024.1
20181020043002 39 188 0.0 0.0 0.00 0.00 0.00 90 1024.1
20181020041502 39 188 0.0 0.0 0.00 0.00 0.00 90 1024.3
20181020040004 39 188 0.0 0.0 0.00 0.00 0.00 90 1024.2
20181020034631 39 188 0.0 0.0 0.00 0.00 0.00 90 1024.3
20181020033200 40 188 0.0 0.0 0.00 0.00 0.00 91 1024.2
20181020031701 39 188 0.0 0.0 0.00 0.00 0.00 90 1024.3
20181020030236 38 188 0.0 0.0 0.00 0.00 0.00 90 1024.3
20181020024658 38 188 0.0 0.0 0.00 0.00 0.00 89 1024.3
20181020023142 38 188 0.0 0.0 0.00 0.00 0.00 89 1024.4
20181020021642 39 188 0.0 0.0 0.00 0.00 0.00 90 1024.3
20181020020138 40 188 0.0 0.0 0.00 0.00 0.00 90 1024.1
20181020014643 38 261 0.0 0.0 0.00 0.00 0.00 90 1024.3
20181020013153 37 261 0.0 0.0 0.00 0.00 0.00 89 1024.5
20181020011708 37 261 0.0 0.0 0.00 0.00 0.00 89 1024.6
20181020010111 39 261 0.0 0.0 0.00 0.00 0.00 89 1024.6
20181020004705 39 261 0.0 0.0 0.00 0.00 0.00 90 1024.6
20181020003202 38 261 0.0 0.0 0.00 0.00 0.00 89 1024.6
20181020001725 37 260 0.0 0.0 0.00 0.00 0.00 89 1024.7
20181020000103 38 261 0.0 0.0 0.00 0.00 0.00 89 1024.8
20181019234605 38 261 0.0 0.0 0.00 0.00 0.00 88 1024.8
20181019233133 39 5 0.0 0.0 0.00 0.00 0.00 89 1024.7
20181019231703 39 5 0.0 0.0 0.00 0.00 0.00 88 1024.8
20181019230115 40 360 0.0 0.0 0.00 0.00 0.00 88 1024.7
20181019223104 38 319 0.0 0.0 0.00 0.00 0.00 87 1025.0
20181019221552 39 55 0.0 0.0 0.00 0.00 0.00 87 1024.9
20181019220049 40 81 0.0 0.0 0.00 0.00 0.00 87 1024.8
20181019214628 40 80 0.0 0.0 0.00 0.00 0.00 87 1024.9
20181019213054 40 81 0.0 0.0 0.00 0.00 0.00 86 1024.9
20181019211538 40 81 0.0 0.0 0.00 0.00 0.00 86 1024.9
20181019210047 40 80 0.0 0.0 0.00 0.00 0.00 86 1024.9
20181019204548 41 80 0.0 0.0 0.00 0.00 0.00 86 1024.9
20181019203033 41 81 0.0 0.0 0.00 0.00 0.00 85 1025.0
20181019201527 41 81 0.0 0.0 0.00 0.00 0.00 85 1025.0
20181019200049 41 81 0.0 0.0 0.00 0.00 0.00 84 1025.0
20181019194615 42 81 0.0 0.0 0.00 0.00 0.00 84 1024.9
20181019193043 43 81 0.0 0.0 0.00 0.00 0.00 84 1024.8
20181019191529 43 81 0.0 0.0 0.00 0.00 0.00 83 1024.8
20181019190023 43 81 0.0 0.0 0.00 0.00 0.00 82 1024.7
20181019184526 44 81 0.0 0.0 0.00 0.00 0.00 82 1024.7
20181019183023 44 81 0.0 0.0 0.00 0.00 0.00 81 1024.5
20181019181521 45 80 0.0 0.0 0.00 0.00 0.00 81 1024.4
20181019180005 46 80 0.0 0.0 0.00 0.00 0.00 80 1024.3
20181019174511 47 81 0.0 0.0 0.00 0.00 0.00 79 1024.4
20181019173358 48 81 0.0 0.0 0.00 0.00 0.00 77 1024.3
20181019171704 50 80 0.0 0.0 0.00 0.00 0.00 75 1024.2
20181019170142 50 80 0.0 0.0 0.00 0.00 0.00 73 1024.1
20181019164633 51 81 0.0 0.0 0.00 0.00 0.00 73 1023.9
20181019163120 51 73 0.0 0.0 0.00 0.00 0.00 72 1024.0
20181019161608 51 85 0.0 0.0 0.00 0.00 0.00 70 1024.0
20181019160147 52 74 0.0 0.0 0.00 0.00 0.00 68 1024.1
20181019154620 52 87 0.0 0.0 0.00 0.00 0.00 67 1024.0
20181019153133 53 61 0.0 0.0 0.00 0.00 0.00 65 1023.9
20181019151556 54 72 0.0 3.0 0.00 0.00 0.00 64 1023.7
20181019150041 55 45 0.0 3.0 0.00 0.00 0.00 62 1023.8
20181019143005 56 26 3.0 8.0 0.00 0.00 0.00 60 1023.8
20181019141511 56 61 0.0 7.0 0.00 0.00 0.00 59 1023.7
20181019140002 57 360 2.0 8.0 0.00 0.00 0.00 59 1023.6
20181019134739 57 41 0.0 9.0 0.00 0.00 0.00 59 1023.6
20181019131650 58 29 2.0 9.0 0.00 0.00 0.00 58 1023.5
20181019130138 58 28 3.0 10.0 0.00 0.00 0.00 58 1023.5
20181019123248 58 38 2.0 8.0 0.00 0.00 0.00 58 1023.6